CW5920 Weather Reports


time (UTC)temp
F
wind
direction
speed
knots
gust
knots
rain 1hr
in
rain 24hr
in
rain mn
in
humidity
%
barometer
mb
20190419043516 56 327 1.7 3.5 0.00 0.31 0.25 73 1015.8
20190419042516 57 337 2.6 5.2 0.00 0.44 0.25 72 1015.8
20190419041515 57 334 3.5 8.7 0.00 0.57 0.25 71 1015.9
20190419040518 58 336 4.3 11.3 0.00 0.68 0.25 70 1015.7
20190419035515 58 332 6.1 13.0 0.01 0.93 0.25 70 1015.8
20190419034515 58 336 7.8 14.8 0.01 0.95 0.25 70 1015.9
20190419033515 58 337 6.1 13.0 0.01 0.95 0.25 70 1015.6
20190419032516 59 347 7.0 10.4 0.01 0.95 0.25 70 1015.4
20190419031515 59 337 4.3 13.0 0.01 0.95 0.25 70 1014.8
20190419030515 59 346 9.6 20.0 0.01 0.95 0.25 71 1015.2
20190419025515 60 339 10.4 19.1 0.00 0.94 0.24 69 1015.4
20190419024515 60 335 6.1 10.4 0.00 0.94 0.24 66 1015.6
20190419023515 60 289 1.7 4.3 0.00 0.94 0.24 63 1014.3
20190419022515 61 296 0.0 3.5 0.00 0.94 0.24 60 1013.8
20190419021516 62 300 0.0 0.9 0.00 0.94 0.24 59 1013.3
20190419021015 62 300 0.0 3.5 0.00 0.94 0.24 58 1013.2
20190419020015 62 289 1.7 7.0 0.00 0.94 0.24 56 1013.2
20190419015015 63 297 2.6 9.6 0.00 0.94 0.24 54 1013.0
20190419014015 63 303 5.2 11.3 0.00 0.94 0.24 53 1012.9
20190419013016 63 302 6.1 12.2 0.00 0.94 0.24 53 1012.9
20190419012015 64 301 2.6 9.6 0.00 0.94 0.24 56 1012.8
20190419011015 65 295 0.9 7.0 0.00 0.94 0.24 55 1012.6
20190419010015 65 301 1.7 6.1 0.00 0.94 0.24 53 1012.5
20190419005015 66 305 2.6 7.8 0.00 0.94 0.24 52 1012.4
20190419004015 66 300 4.3 9.6 0.00 0.94 0.24 50 1012.6
20190419003015 67 306 4.3 9.6 0.00 0.94 0.24 48 1012.5
20190419002015 68 319 6.1 13.9 0.00 0.94 0.24 46 1012.3
20190419001015 68 308 6.1 12.2 0.00 0.94 0.24 46 1012.4
20190419000015 68 315 7.8 14.8 0.00 0.94 0.24 45 1012.3
20190418235015 69 320 10.4 20.0 0.00 0.94 0.24 44 1012.2
20190418234015 69 317 11.3 22.6 0.00 0.94 0.24 43 1012.1
20190418233039 69 324 11.3 19.1 0.00 0.94 0.24 43 1012.2
20190418232015 69 321 11.3 20.0 0.00 0.94 0.24 42 1012.3
20190418231015 70 316 13.0 21.7 0.00 0.94 0.24 41 1012.2
20190418230015 70 317 9.6 22.6 0.00 0.94 0.24 44 1012.2
20190418225015 70 318 11.3 20.0 0.00 0.94 0.24 44 1012.0
20190418224015 70 323 12.2 21.7 0.00 0.94 0.24 42 1011.9
20190418223015 70 326 10.4 20.0 0.00 0.94 0.24 42 1011.9
20190418222015 70 314 13.9 24.3 0.00 0.94 0.24 38 1011.7
20190418221015 70 320 12.2 22.6 0.00 0.94 0.24 42 1011.8
20190418220015 70 320 13.9 25.2 0.00 0.94 0.24 41 1011.6
20190418215015 70 315 9.6 24.3 0.00 0.94 0.24 43 1011.5
20190418214015 70 314 13.0 22.6 0.00 0.94 0.24 42 1011.6
20190418213015 70 318 12.2 26.1 0.00 0.94 0.24 43 1011.4
20190418212015 70 333 13.9 23.5 0.00 0.94 0.24 44 1011.3
20190418211015 70 326 13.9 25.2 0.00 0.94 0.24 42 1011.3
20190418210015 70 309 12.2 21.7 0.00 0.94 0.24 44 1011.3
20190418205015 70 323 12.2 23.5 0.00 0.94 0.24 45 1011.4
20190418204015 70 328 14.8 25.2 0.00 0.94 0.24 43 1011.6
20190418203015 70 325 13.0 24.3 0.00 0.94 0.24 45 1011.7
20190418202015 70 319 11.3 21.7 0.00 0.94 0.24 44 1011.7
20190418201015 70 317 13.0 22.6 0.00 0.94 0.24 45 1011.7
20190418200015 69 322 11.3 24.3 0.00 0.94 0.24 50 1011.7
20190418195015 69 311 12.2 23.5 0.00 0.94 0.24 47 1011.8
20190418194015 68 321 13.0 24.3 0.00 0.94 0.24 50 1011.8
20190418193015 68 315 13.0 26.1 0.00 0.94 0.24 50 1011.9
20190418192015 69 317 10.4 20.9 0.00 0.94 0.24 53 1011.7
20190418191015 68 321 12.2 23.5 0.00 0.94 0.24 53 1011.7
20190418190015 67 312 12.2 20.9 0.00 0.94 0.24 56 1011.4
20190418185015 67 329 13.9 23.5 0.00 0.94 0.24 58 1011.3
20190418184015 65 316 13.0 21.7 0.00 0.94 0.24 63 1011.2
20190418183015 64 326 10.4 19.1 0.00 0.94 0.24 73 1010.9
20190418182015 64 324 8.7 23.5 0.00 0.94 0.24 75 1011.0
20190418181015 62 322 11.3 20.0 0.00 0.94 0.24 75 1010.9
20190418180015 63 332 13.9 24.3 0.00 0.94 0.24 75 1010.9
20190418175015 63 322 12.2 25.2 0.00 0.94 0.24 79 1010.8
20190418174015 63 313 10.4 19.1 0.00 0.94 0.24 78 1010.8
20190418173017 63 328 12.2 20.0 0.00 0.94 0.24 82 1010.8
20190418172017 61 327 8.7 23.5 0.01 0.94 0.24 84 1010.7
20190418171017 61 328 13.0 23.5 0.01 0.94 0.24 84 1010.5
20190418170017 62 311 12.2 20.0 0.01 0.94 0.24 86 1010.2
20190418165017 62 331 8.7 15.6 0.01 0.94 0.24 88 1010.0
20190418164017 61 331 10.4 19.1 0.01 0.94 0.24 89 1010.0
20190418163017 60 348 13.9 15.6 0.01 0.94 0.24 91 1010.0
20190418162517 60 333 12.2 21.7 0.01 0.94 0.24 91 1009.8
20190418161520 61 330 7.8 15.6 0.00 0.93 0.23 93 1009.9
20190418160517 62 331 7.0 14.8 0.00 0.93 0.23 92 1009.9
20190418155517 62 332 8.7 19.1 0.00 0.93 0.23 92 1009.8
20190418154517 62 332 11.3 20.9 0.00 0.93 0.23 93 1009.7
20190418153517 62 342 9.6 18.2 0.00 0.93 0.23 94 1009.5
20190418152517 61 339 7.0 17.4 0.00 0.93 0.23 95 1009.3
20190418151517 61 339 7.8 14.8 0.00 0.93 0.23 95 1009.2
20190418150517 61 327 7.0 11.3 0.00 0.94 0.23 95 1009.1
20190418145517 61 330 5.2 10.4 0.00 0.94 0.23 95 1009.0
20190418144517 62 324 4.3 9.6 0.00 0.94 0.23 95 1008.8
20190418143517 62 315 2.6 7.0 0.00 0.94 0.23 96 1008.6
20190418142517 61 173 1.7 6.1 0.00 0.94 0.23 96 1008.5
20190418141517 61 135 0.9 3.5 0.00 0.94 0.23 96 1008.1
20190418140517 61 135 0.9 2.6 0.00 0.94 0.23 96 1007.8
20190418135517 60 0.0 0.0 0.00 0.94 0.23 96 1007.7
20190418134517 61 0.0 0.0 0.00 0.94 0.23 96 1007.6
20190418133517 61 0.0 2.6 0.00 0.94 0.23 96 1007.6
20190418132517 60 0.0 0.0 0.00 0.94 0.23 96 1007.4
20190418131517 60 0.0 0.0 0.00 0.94 0.23 96 1007.2
20190418130517 60 0.0 0.0 0.00 0.94 0.23 96 1007.1
20190418125517 59 0.0 0.0 0.00 0.94 0.23 96 1007.2
20190418124517 59 0.0 1.7 0.00 0.94 0.23 96 1007.1
20190418123517 59 0.0 0.0 0.00 0.94 0.23 96 1007.2
20190418122517 59 129 0.9 3.5 0.00 0.94 0.23 96 1006.4
20190418121517 59 117 1.7 5.2 0.00 0.94 0.23 96 1005.9
20190418120517 59 0.0 0.0 0.00 0.94 0.23 96 1005.4
20190418115517 60 0.0 0.0 0.00 0.94 0.23 96 1005.1
20190418114520 60 0.0 0.0 0.00 0.94 0.23 96 1005.0
20190418113517 60 0.0 0.0 0.00 0.94 0.23 96 1005.1
20190418112517 60 261 0.0 4.3 0.00 0.94 0.23 96 1005.8
20190418111516 60 248 0.9 4.3 0.00 0.94 0.23 96 1005.8
20190418110517 60 0.0 0.9 0.00 0.94 0.23 96 1006.2
20190418105517 60 236 0.9 4.3 0.00 0.94 0.23 96 1005.9
20190418104517 61 132 0.0 1.7 0.00 0.94 0.23 96 1005.6
20190418103517 61 131 0.9 2.6 0.00 0.94 0.23 96 1004.8
20190418102517 61 132 0.0 4.3 0.00 0.94 0.23 96 1005.5
20190418101516 61 137 3.5 7.0 0.00 0.94 0.23 96 1004.8
20190418100518 61 150 4.3 7.0 0.00 0.94 0.23 96 1005.4
20190418095515 61 124 4.3 7.0 0.00 0.94 0.23 96 1005.0
20190418094517 61 164 1.7 7.0 0.00 0.94 0.23 96 1005.9
20190418093516 61 184 1.7 7.0 0.00 0.94 0.23 96 1006.4
20190418092517 61 171 4.3 8.7 0.00 0.94 0.23 96 1005.6
20190418090519 61 183 1.7 6.1 0.00 0.94 0.23 96 1005.8
20190418085517 61 125 5.2 8.7 0.00 0.94 0.23 96 1004.9
20190418084517 61 154 2.6 4.3 0.00 0.94 0.23 95 1004.5
20190418083516 61 0.0 0.0 0.00 0.94 0.23 95 1003.9
20190418082516 61 190 0.0 1.7 0.00 0.94 0.23 95 1004.5
20190418081517 61 190 0.0 4.3 0.00 0.94 0.23 95 1004.2
20190418080518 61 190 0.0 1.7 0.00 0.94 0.23 95 1004.1
20190418075516 61 190 0.0 3.5 0.00 0.94 0.23 95 1004.4
20190418074517 61 165 0.9 11.3 0.01 0.94 0.23 95 1004.4
20190418073517 61 68 7.8 11.3 0.03 0.94 0.23 95 1002.0
20190418072517 61 132 3.5 7.0 0.06 0.94 0.23 95 1004.1
20190418071517 62 115 3.5 8.7 0.09 0.94 0.23 95 1004.0
20190418070516 62 66 3.5 7.0 0.13 0.94 0.23 94 1003.3
20190418065516 62 187 0.0 1.7 0.16 0.94 0.23 94 1003.9
20190418064517 62 193 0.9 7.0 0.18 0.93 0.22 94 1007.5
20190418063517 62 201 3.5 9.6 0.18 0.91 0.20 94 1008.7
20190418062517 62 214 4.3 11.3 0.15 0.88 0.17 94 1009.2
20190418061517 62 224 0.9 3.5 0.13 0.85 0.14 94 1008.2
20190418060517 62 194 1.7 6.1 0.10 0.81 0.10 93 1007.6
20190418055516 62 218 2.6 7.8 0.08 0.78 0.07 93 1008.2
20190418054516 62 213 2.6 7.8 0.07 0.75 0.04 93 1008.6
20190418053517 62 233 2.6 11.3 0.08 0.73 0.02 93 1008.5
20190418052516 62 232 1.7 9.6 0.21 0.73 0.02 93 1008.2
20190418051517 62 254 0.9 4.3 0.33 0.72 0.01 93 1006.9
20190418050517 62 282 1.7 9.6 0.43 0.71 0.00 93 1006.8
20190418045515 63 344 4.3 9.6 0.67 0.70 0.70 92 1006.4
20190418044516 63 358 3.5 9.6 0.67 0.68 0.68 92 1006.2